Location: Morlupo
(42.1333°N, 12.5000°E)
Time: 16:25:06
(UTC+00:00)

CENTAUR R/B - Pass Details

Date: 18 September 2020
Orbit: 755 x 1433 km, 63.4° (Epoch: 02 October)

Event Time Altitude Azimuth Distance (km) Brightness Sun altitude
Rises 19:25:30 0° 325° (NW) 4,143 6.8 -24.4°
Reaches altitude 10° 19:28:13 10° 329° (NNW) 3,259 6.0 -24.8°
Maximum altitude 19:36:14 62° 50° (NE) 1,526 3.3 -26.1°
Enters shadow 19:38:32 48° 102° (ESE) 1,762 3.3 -26.5°
